Showing default

FLOCK 4Y 33, 55042

Orbit data source: Space-Track

FLOCK 4Y 33, 55042 is a payload satellite owned by Planet (US) in SSO that was launched on Tue, 03 Jan 2023 UTC via an FALCON 9 launch vehicle from the Air Force Eastern Test Range (AFETR). Payloads include a variety of satellites, spacecraft, and rockets equipped with specific instruments for various scientific and technological missions. These include communications satellites like Starlink; space stations such as the ISS; scientific satellites like the Hubble; Earth observation satellites from companies like Planet Labs, Umbra, and HawkEye 360; GPS; miniature CubeSats for education and research; and military/defense satellites.

Loading next visibility...
FLOCK 4Y 33 details
Identifier
55042, 2023-001AK
Orbit
SSO
Last TLE update7 hours ago
Origin
Flag of USPlanet (US)
ManufacturerPlanet
MissionOperational Commercial Imaging
Bus & MotorCUBESAT 3U, Unknown motor
Mass5.7 kg wet, 5.7 kg dry
Launch date (UTC)
2023-01-03 (2 years ago)
Launch vehicle
FALCON 9
Launch site
Air Force Eastern Test Range (AFETR)
Object type
Payload
Rocket body
Debris
Shape & HBRBox + 2 Pan, 0.3 m
Radar Cross Section0.108 m², Medium (>0.1 m² and < 1m²)

Expand to show TLE details & history

TLE from 7 hours ago
0 FLOCK 4Y 33
1 55042U 23001AK  25037.73885302  .00036153  00000-0  74672-3 0  9992
2 55042  97.3907 107.1763 0006098  57.1003 303.0832 15.45740232116793
Epoch: 2025-02-06T17:43Z
Definitive object data (Epoch: 2025-02-06T17:43:56.9Z)
Latitude-0.00006°
Longitude64.0781°
Altitude430.065 km
Speed7.655 km/s
True Right ascension07h 08m 42s
True Declination0° 00' 00"
Sunlit
Object was in full shadow at TLE epoch
Visualization TLE readout
Latitude-78.27954°
Longitude-154.05599°
Altitude460.761 km
Speed7.633 km/s
Apparent Right ascension15h 31m 37s
Apparent Declination-59° 55' 40"
Sunlit
Object is in daylight
Visualization observer readout
Local Sidereal Time03:13:29
Azimuth186.584° SSW
Elevation-69.788°
Doppler factor1
Orbital elements
Apogee altitude430.284 km
Perigee altitude421.986 km
Semi-major axis6,804.272 km
Eccentricity0.0006098
Inclination97.3907°
RAAN107.1763°
Arg. of periapsis57.1003°
True anomaly303.02463°
Mean anomaly303.0832°
Eccentric anomaly303.05392°
Mean motion3.86697 °/min
BSTAR0.00074672
Orbital period93.1 mins
Loading maneuver chart data...
Loading historical data...
Loading historical data...
Loading historical data...
Loading historical data...
Loading historical data...
Loading historical data...
Loading historical data...

FLOCK 4Y 33 Visibility forecast

Observer location: undefined°, undefined

Span
Click to sort rows by Start time (UTC) header in descending order
Start Az.
Max El. time (UTC)
Max El. Az.
Max El.
End time (UTC)
End Az.
5 mins2025-02-07 04:44:18.631Z180.903° SSW2025-02-07 04:46:18.631Z218.02° SW38.325°2025-02-07 04:49:18.631Z338.097° N
5 mins2025-02-07 17:36:18.631Z356.343° N2025-02-07 17:38:18.631Z272.046° WNW39.664°2025-02-07 17:41:18.631Z205.586° SW
|